Starlink 3135

operational
NORAD ID: 49424 Int'l Des: 2021-104 Owner: SPXS Country: US Constellation: starlink
LEOCIRCULAR

Starlink 3135について

説明を読み込み中...

リアルタイム位置

3D地球を読み込み中...

次回通過

高度履歴

Altitude vs Time

uPlot chart will show altitude changes over time

軌道要素

1 49424U 21104S 25350.09488180 -.00000167 00000-0 75739-5 0 9995
2 49424 53.2167 244.3938 0001468 89.0661 271.0499 15.08838882226004
Epoch: Dec 16, 2025 • Age: 23 hours

現在のステータス

高度 540.7 km
速度 7.59 km/s
衛星直下点 -0.56°S, 45.39°W
打ち上げ日 Nov 13, 2021
運用期間 4 years
タイプ internet

技術仕様

分類 Payload
質量 290.00 kg
乾燥質量 270.00 kg
総質量 290.00 kg
長さ 0.20 m
直径 2.80 m
スパン 9.00 m
形状 Box + pan
製造者 SPXS
バスタイプ Starlink
フェーズステータス In Orbit
所有者/国 SPXS/US

大規模コンステレーション

Loading constellations...